User: anonymous
Location: Arrakis Observatory
(44.1122°N, 95.7153°W)
Time: 06:42:15
(UTC-05:00)
Language:

Iridium 35 - Orbit

View from above orbital plane
View from above orbital plane
View from above satellite
View from above satellite

Ground track
Ground track

The orbit data is extracted from the following two-line orbital elements,

1 24966U 97056B   14113.37323988  .00000650  00000-0  22499-3 0  8053
2 24966 086.3958 079.7444 0002266 100.8220 259.3231 14.34218676867583
Epoch (UTC): 23 April 2014 08:57:27
Eccentricity: 0.0002266
inclination: 86.3958°
perigee height: 776 km
apogee height: 779 km
right ascension of ascending node: 79.7444°
argument of perigee: 100.8220°
revolutions per day: 14.34218676
mean anomaly at epoch: 259.3231°
orbit number at epoch: 86758

The dashed part of the orbit path shows where the satellite is in the earth's shadow,  

DLR